TimeEST,TemperatureF,Dew PointF,Humidity,Sea Level PressureIn,VisibilityMPH,Wind Direction,Wind SpeedMPH,Gust SpeedMPH,PrecipitationIn,Events,Conditions,WindDirDegrees,DateUTC
12:52 AM,30.0,21.0,69,30.49,10.0,NNW,4.6,-,N/A,,Clear,330,2012-11-15 05:52:00
1:52 AM,30.9,21.9,69,30.49,10.0,NNW,5.8,-,N/A,,Clear,340,2012-11-15 06:52:00
2:52 AM,30.0,21.9,72,30.50,10.0,NW,5.8,-,N/A,,Clear,320,2012-11-15 07:52:00
3:52 AM,26.1,21.0,81,30.48,10.0,NNW,4.6,-,N/A,,Clear,330,2012-11-15 08:52:00
4:52 AM,28.9,21.0,72,30.47,10.0,NW,4.6,-,N/A,,Clear,320,2012-11-15 09:52:00
5:52 AM,26.1,21.0,81,30.48,10.0,NW,4.6,-,N/A,,Clear,320,2012-11-15 10:52:00
6:52 AM,28.9,21.9,75,30.49,10.0,NW,5.8,-,N/A,,Clear,320,2012-11-15 11:52:00
7:52 AM,34.0,23.0,64,30.49,10.0,NNW,6.9,-,N/A,,Clear,340,2012-11-15 12:52:00
8:52 AM,36.0,24.1,62,30.48,10.0,North,11.5,19.6,N/A,,Clear,10,2012-11-15 13:52:00
9:52 AM,37.9,24.1,57,30.46,10.0,North,10.4,-,N/A,,Clear,10,2012-11-15 14:52:00
10:52 AM,39.9,24.1,53,30.45,10.0,NNE,4.6,-,N/A,,Clear,30,2012-11-15 15:52:00
11:52 AM,43.0,24.1,47,30.41,10.0,NNE,9.2,-,N/A,,Clear,20,2012-11-15 16:52:00
12:52 PM,43.0,24.1,47,30.38,10.0,NE,4.6,-,N/A,,Clear,50,2012-11-15 17:52:00
1:52 PM,44.1,23.0,43,30.36,10.0,Variable,4.6,-,N/A,,Clear,0,2012-11-15 18:52:00
2:52 PM,44.1,23.0,43,30.36,10.0,NE,4.6,-,N/A,,Clear,50,2012-11-15 19:52:00
3:52 PM,42.1,23.0,47,30.36,10.0,ENE,3.5,-,N/A,,Clear,70,2012-11-15 20:52:00
4:52 PM,41.0,24.1,51,30.35,10.0,Calm,Calm,-,N/A,,Clear,0,2012-11-15 21:52:00
5:52 PM,37.0,26.1,65,30.35,10.0,Calm,Calm,-,N/A,,Clear,0,2012-11-15 22:52:00
6:52 PM,36.0,26.1,67,30.36,10.0,NNW,3.5,-,N/A,,Clear,330,2012-11-15 23:52:00
8:52 PM,32.0,26.1,79,30.36,10.0,Calm,Calm,-,N/A,,Clear,0,2012-11-16 01:52:00
10:52 PM,30.0,27.0,88,30.34,10.0,Calm,Calm,-,N/A,,Clear,0,2012-11-16 03:52:00
11:52 PM,28.9,26.1,89,30.33,10.0,Calm,Calm,-,N/A,,Clear,0,2012-11-16 04:52:00